Regional Weather Roundup
Issued by NWS Albany, NY

Home | Current Version | Previous Version | Graphics & Text | Print | Product List | Glossary Off
Versions: 1 2 3 4 5 6 7 8 9 10 11 12 13 14 15 16 17 18 19 20 21 22 23 24 25 26 27 28 29 30 31 32 33 34 35 36 37 38 39 40 41 42 43 44 45 46 47 48 49 50

710
ASUS41 KALY 090510
RWRALY

NEW YORK STATE HOURLY WEATHER ROUNDUP
NATIONAL WEATHER SERVICE ALBANY NY
1200 AM EST TUE FEB 09 2016

NOTE: "FAIR" INDICATES FEW OR NO CLOUDS BELOW 12,000 FEET WITH NO
SIGNIFICANT WEATHER AND/OR NO OBSTRUCTIONS TO VISIBILITY.

NYZ032-033-038>043-046>054-057>066-NYZ062>081-090600-
EAST


CITY           SKY/WX    TMP DP  RH WIND       PRES   REMARKS
ALBANY         LGT SNOW  25  21  85 CALM      29.77F FOG
GLENS FALLS    LGT SNOW  24  20  84 E5        29.77F FOG     WCI  18
POUGHKEEPSIE   LGT SNOW  26  22  84 N5        29.76F FOG     WCI  20
NEWBURGH       LGT SNOW  25  23  93 NE9       29.75F WCI  15
MONTGOMERY     LGT SNOW  25  21  85 MISG      29.74F FOG
WHITE PLAINS   CLOUDY    25  19  78 NE8       29.74F WCI  16
ISLIP          FLURRIES  27  22  81 NE6       29.74F WCI  20
NEW YORK CITY  FLURRIES  29  24  82 E12       29.76F WCI  19
CENTRAL PARK   CLOUDY    28  22  78 VRB7      29.77F WCI  21
$$

NYZ005>009-017-018-044>046-055-056-090600-
CENTRAL


CITY           SKY/WX    TMP DP  RH WIND       PRES   REMARKS
FULTON         CLOUDY    32  18  56 E7G18     29.65S WCI  26
SYRACUSE       FLURRIES  29  23  78 E10       29.65F WCI  20
ROME           LGT SNOW  25  20  81 E12       29.72F WCI  14
ELMIRA         LGT SNOW  33  32  96 CALM      29.60F FOG
BINGHAMTON     LGT SNOW  26  22  84 SE10      29.60S FOG     WCI  16
MONTICELLO     CLOUDY    21  18  86 E8        29.67F WCI  12
$$

NYZ026>034-041>043-090600-
NORTH


CITY           SKY/WX    TMP DP  RH WIND       PRES   REMARKS
WATERTOWN      CLOUDY    24  12  60 NE10      29.68F WCI  14
FORT DRUM      NOT AVBL
MASSENA        LGT SNOW  19  13  77 E15       29.79F WCI   5
SARANAC LAKE   LGT SNOW  16  12  84 NE7       29.65F FOG     WCI   6
PLATTSBURGH    LGT SNOW  22  18  85 N8        29.80S FOG     WCI  12
$$

NYZ001>004-010>016-019>021-090600-
WEST


CITY           SKY/WX    TMP DP  RH WIND       PRES   REMARKS
NIAGARA FALLS  LGT SNOW  34  31  88 E9        29.54S FOG     WCI  27
BUFFALO        LGT SNOW  34  32  92 SE8       29.54F FOG     WCI  27
DUNKIRK        CLOUDY    36  31  82 S7        29.54S WCI  30
JAMESTOWN      CLOUDY    32  28  86 S6        29.50S WCI  26
WELLSVILLE     CLOUDY    32  25  75 S10       29.52F WCI  24
ROCHESTER      LGT SNOW  33  31  92 E6        29.59F FOG     WCI  28
PENN YAN       LGT SNOW  33  29  85 VRB6      29.59F FOG     WCI  28
$$

             KEY
       WCI = WIND CHILL INDEX
       VSB = VISIBILITY
       HX  = HEAT INDEX
$$




USA.gov is the U.S. government's official web portal to all federal, state and local government web resources and services.